Regional Weather Roundup
Issued by NWS Sioux Falls, SD

Home | Current Version | Previous Version | Text Only | Print | Product List | Glossary On
Versions: 1 2 3 4 5 6 7 8 9 10 11 12 13 14 15 16 17 18 19 20 21 22 23 24 25 26 27 28 29 30 31 32 33 34 35 36 37 38 39 40 41 42 43 44 45 46 47 48 49 50
000
ASUS43 KFSD 062010
RWRFSD

WEATHER ROUNDUP FOR SE SOUTH DAKOTA/SW MINNESOTA/NW IOWA
NATIONAL WEATHER SERVICE SIOUX FALLS SD
300 PM CDT WED MAY 06 2015

NOTE: "FAIR" INDICATES FEW OR NO CLOUDS BELOW 12,000 FEET WITH NO
SIGNIFICANT WEATHER AND OR OBSTRUCTIONS TO VISIBILITY.


SDZ038>040-050-052>070-062100-
SOUTHEAST SOUTH DAKOTA

CITY           SKY/WX    TMP DP  RH WIND       PRES   REMARKS
BROOKINGS      PTSUNNY   64  61  88 S25G31    29.76S
CHAMBERLAIN    DRIZZLE   63  61  95 S8        29.65F
HURON          CLOUDY    65  62  90 S17G31    29.66F
MADISON        LGT RAIN  63  63 100 S18G26    29.75S
MITCHELL       CLOUDY    70  61  73 S23G30    29.69S
SIOUX FALLS    LGT RAIN  67  61  81 S16G23    29.75F
WINNER         LGT RAIN  65  58  78 S9        29.65F
YANKTON        PTSUNNY   72  57  60 S21G30    29.71F
$$

MNZ071-072-080-081-089-090-097-098-062100-
SOUTHWEST MINNESOTA

CITY           SKY/WX    TMP DP  RH WIND       PRES   REMARKS
FAIRMONT       PTSUNNY   70  43  37 S22       29.84S
JACKSON        CLOUDY    72  59  64 S26G35    29.85F
LUVERNE        CLOUDY    70  61  73 S22G29    29.78F
MARSHALL       CLOUDY    68  59  73 S21G31    29.77F
MONTEVIDEO     LGT RAIN  66  63  88 S16G26    29.79R
PIPESTONE      PTSUNNY   66  63  88 S28       29.77F
REDWOOD FALLS  RAIN      67  63  87 S20G37    29.82R FOG
TRACY          CLOUDY    70  64  80 S21G26    29.79F
WORTHINGTON    PTSUNNY   68  59  73 S25       29.80F
$$

IAZ001>003-012>014-020>022-031-032-NEZ013-014-SDZ071-062100-
NORTHWEST IOWA

CITY           SKY/WX    TMP DP  RH WIND       PRES   REMARKS
CHEROKEE       CLOUDY    72  59  64 S20G30    29.82S
DENISON        CLOUDY    66  66 100 S15G23    29.83S
ESTHERVILLE    PTSUNNY   73  61  65 S30G38    29.84F
LE MARS        CLOUDY    72  59  64 S28G37    29.79S
ORANGE CITY    PTSUNNY   72  55  56 S20G31    29.79S
SHELDON        CLOUDY    73  64  73 S30G37    29.78F
SIOUX CITY     LGT RAIN  66  61  84 S22G32    29.80R
SPENCER        PTSUNNY   74  63  68 S24G36    29.82F
STORM LAKE     PTSUNNY   73  57  56 S31       29.84S
$$

ABBREVIATIONS USED IN REMARKS
   TC - TEMPERATURE IN CELSIUS
  WCI - WIND CHILL INDEX
   HX - HEAT INDEX
  VSB - VISIBILITY



USA.gov is the U.S. government's official web portal to all federal, state and local government web resources and services.